CZ-6A DEB

Satellite information

Favourite Embed

Satellite Type and Status

DEBRISIN ORBIT

Key statistics

Satellite CZ-6A DEB at a glance.

Uptime

1128

Days in orbit

Revolutions

≈ 14.9

Per day

Orbit

SSO

Sun Synchronous Orbit

Inclination

98.6

Latest

Satellite identification and parameters

Extended collection of information and parameters for CZ-6A DEB.

Object identification

Identified? True

Debris? True

Object name: CZ-6A DEB

International designator: 2022-151RK

Object number (NORAD): 54922

Object ID (CCSDS): 54922

Country: PEOPLES REPUBLIC OF CHINA (PRC)

Current information (Y/N): Y

RCS size: SMALL

Orbital parameters

Period: 96.676 minutes

Inclination: 98.6405 deg

SMA: 6977.58 km

Apoapsis: 629.586 km

Periapsis: 569.303 km

RAAN: 47.7201 deg

Eccentricy: 0.00431971

Argument of periapsis: 109.5425 deg

Mean anomaly: 251.0462 deg

Mean motion: 14.89517328 rev/day

Mean motion (dot): 0.00056628 rev/day2

B* drag term: 0.0058030453 1/REarth

Two-line elements (TLE)

Creation date: Dec. 12, 2025, 10:14 a.m.

Reference frame: TEME

Reference center: EARTH

Epoch: Dec. 12, 2025, 3:40 a.m. UTC

TLE line 0: 0 CZ-6A DEB

TLE line 1: 1 54922U 22151RK 25346.15281493 .00056628 00000-0 58030-2 0 9991

TLE line 2: 2 54922 98.6405 47.7201 0043197 109.5425 251.0462 14.89517328160215

Live tracking on map

Real-time ground track for satellite CZ-6A DEB.

In-orbit conjunctions

A list of the most updated potential collisions computed for object CZ-6A DEB.

Target Orbit TCA Probability of collision Miss distance Type
COROT SSO 2025-06-21 17:57:27 0.0001549372 259.0 (m) PAYLOAD
CZ-6A DEB SSO 2024-11-14 17:58:41 0.0003606204 902.0 (m) DEBRIS
COSMOS 2251 DEB LEO 2024-11-11 03:28:23 0.0001807808 297.0 (m) DEBRIS

Associated space launch

Chinese satellite reported for atmospheric/ocean/environmental/spatial parameter research purposes, details TBD.

CZ-6A DEB was lifted into orbit during the mission ‘Long March 6A | Yunhai 3’, on board a Long March 6A space rocket.

The launch took place on Nov. 11, 2022, 10:52 p.m. from Launch Complex 9A.

For more information about the launch, click the button.

Launch to space Long March 6A | Yunhai 3
Long March 6A | Yunhai 3

Agency: N/A

Status: Launch Successful

Launch date: Nov. 11, 2022, 10:52 p.m. UTC

Rocket: Long March 6A

Launch pad: Launch Complex 9A

Location: Taiyuan Satellite Launch Center, People's Republic of China

...

Latest news about this satellite

There are no fresh news available about this satellite. Check back as we update our databases every day.


Newsletter sign-up

Weekly statistics, charts and insights to help you stay on top of the space industry.